CTV952 WIII-WIEE

Flight info

Callsign CTV952
Flight time 1h 24m
Altitude 38000
Route GUDBA T6 LEBEG
Aircraft A20N/M-SDE2E3FGHIRWXY/LB1

Departure

Time 2026-05-06 07:16
Airport Soekarno-Hatta International Airport (WIII)

Arrival

Time 2026-05-06 08:40
Airport Minangkabau International Airport (WIEE)
Time Latitude Longitude Altitude Speed Heading
2026-05-06 06:47 -6.13142 106.65138 44 ft 0 kts 101°
2026-05-06 07:06 -6.13141 106.65131 44 ft 2 kts 101°
2026-05-06 07:06 -6.13138 106.65115 44 ft 2 kts 101°
2026-05-06 07:06 -6.13136 106.65106 44 ft 2 kts 93°
2026-05-06 07:06 -6.13139 106.65092 44 ft 2 kts 61°
2026-05-06 07:07 -6.13149 106.65080 44 ft 2 kts 34°
2026-05-06 07:07 -6.13161 106.65074 44 ft 0 kts 10°
2026-05-06 07:07 -6.13167 106.65074 44 ft 1 kts
2026-05-06 07:07 -6.13169 106.65073 44 ft 0 kts
2026-05-06 07:08 -6.13168 106.65073 44 ft 0 kts
2026-05-06 07:09 -6.13154 106.65073 44 ft 4 kts 341°
2026-05-06 07:09 -6.13108 106.65037 44 ft 11 kts 317°
2026-05-06 07:10 -6.13100 106.64959 44 ft 12 kts 253°
2026-05-06 07:10 -6.13129 106.64874 44 ft 13 kts 250°
2026-05-06 07:10 -6.13200 106.64844 45 ft 12 kts 160°
2026-05-06 07:10 -6.13278 106.64874 46 ft 12 kts 159°
2026-05-06 07:11 -6.13358 106.64905 46 ft 12 kts 158°
2026-05-06 07:11 -6.13444 106.64939 46 ft 13 kts 158°
2026-05-06 07:11 -6.13539 106.64978 45 ft 16 kts 158°
2026-05-06 07:11 -6.13659 106.65025 43 ft 20 kts 158°
2026-05-06 07:12 -6.13783 106.65038 41 ft 19 kts 232°
2026-05-06 07:12 -6.13832 106.64919 44 ft 17 kts 249°
2026-05-06 07:12 -6.13874 106.64813 46 ft 16 kts 249°
2026-05-06 07:12 -6.13917 106.64700 44 ft 17 kts 247°
2026-05-06 07:13 -6.13968 106.64578 41 ft 20 kts 249°
2026-05-06 07:13 -6.14022 106.64436 35 ft 22 kts 249°
2026-05-06 07:13 -6.14100 106.64304 32 ft 21 kts 200°
2026-05-06 07:13 -6.14206 106.64369 34 ft 18 kts 112°
2026-05-06 07:14 -6.14208 106.64481 36 ft 10 kts 69°
2026-05-06 07:14 -6.14206 106.64488 36 ft 0 kts 69°
2026-05-06 07:14 -6.14205 106.64490 36 ft 0 kts 69°
2026-05-06 07:14 -6.14204 106.64492 36 ft 0 kts 69°
2026-05-06 07:15 -6.14154 106.64618 38 ft 53 kts 68°
2026-05-06 07:15 -6.13933 106.65172 38 ft 116 kts 69°
2026-05-06 07:15 -6.13573 106.66091 76 ft 161 kts 67°
2026-05-06 07:15 -6.13176 106.67172 477 ft 168 kts 67°
2026-05-06 07:16 -6.12744 106.68237 1142 ft 164 kts 66°
2026-05-06 07:16 -6.12305 106.69288 1779 ft 163 kts 67°
2026-05-06 07:16 -6.11860 106.70364 2128 ft 174 kts 68°
2026-05-06 07:16 -6.11384 106.71532 2417 ft 189 kts 68°
2026-05-06 07:17 -6.10991 106.72854 2711 ft 206 kts 73°
2026-05-06 07:17 -6.10248 106.74155 2912 ft 231 kts 43°
2026-05-06 07:17 -6.08772 106.74934 3272 ft 253 kts 14°
2026-05-06 07:17 -6.06953 106.74870 3703 ft 273 kts 344°
2026-05-06 07:18 -6.05215 106.74067 4418 ft 279 kts 333°
2026-05-06 07:18 -6.03549 106.73083 5187 ft 282 kts 329°
2026-05-06 07:18 -6.02693 106.72434 5600 ft 286 kts 316°
2026-05-06 07:18 -6.01878 106.71283 6132 ft 292 kts 297°
2026-05-06 07:19 -6.01130 106.69376 6960 ft 295 kts 290°
2026-05-06 07:19 -6.00487 106.67419 7753 ft 298 kts 289°
2026-05-06 07:19 -5.99827 106.65466 8519 ft 302 kts 290°
2026-05-06 07:19 -5.99112 106.63469 9275 ft 306 kts 291°
2026-05-06 07:20 -5.98368 106.61481 10041 ft 309 kts 291°
2026-05-06 07:20 -5.97582 106.59435 10587 ft 320 kts 292°
2026-05-06 07:20 -5.96751 106.57306 11033 ft 333 kts 292°
2026-05-06 07:20 -5.95889 106.55114 11719 ft 338 kts 292°
2026-05-06 07:21 -5.95029 106.52936 12419 ft 341 kts 291°
2026-05-06 07:21 -5.94146 106.50705 13091 ft 345 kts 291°
2026-05-06 07:21 -5.93262 106.48470 13754 ft 348 kts 291°
2026-05-06 07:21 -5.92368 106.46210 14436 ft 350 kts 292°
2026-05-06 07:22 -5.91466 106.43929 15107 ft 353 kts 292°
2026-05-06 07:22 -5.90552 106.41623 15735 ft 355 kts 292°
2026-05-06 07:22 -5.89635 106.39309 16348 ft 358 kts 292°
2026-05-06 07:22 -5.88714 106.36988 16937 ft 361 kts 293°
2026-05-06 07:23 -5.87782 106.34643 17527 ft 364 kts 293°
2026-05-06 07:23 -5.86851 106.32303 18081 ft 367 kts 293°
2026-05-06 07:23 -5.85894 106.29894 18613 ft 370 kts 293°
2026-05-06 07:23 -5.84940 106.27496 19125 ft 373 kts 293°
2026-05-06 07:24 -5.83976 106.25069 19635 ft 377 kts 293°
2026-05-06 07:24 -5.83002 106.22622 20131 ft 380 kts 293°
2026-05-06 07:24 -5.82029 106.20174 20617 ft 383 kts 293°
2026-05-06 07:24 -5.81030 106.17661 21100 ft 385 kts 293°
2026-05-06 07:25 -5.80038 106.15166 21564 ft 388 kts 293°
2026-05-06 07:25 -5.79035 106.12643 22028 ft 391 kts 294°
2026-05-06 07:25 -5.78026 106.10105 22499 ft 393 kts 293°
2026-05-06 07:25 -5.77013 106.07561 22954 ft 396 kts 293°
2026-05-06 07:26 -5.75993 106.04999 23400 ft 399 kts 293°
2026-05-06 07:26 -5.74958 106.02397 23854 ft 401 kts 293°
2026-05-06 07:26 -5.73918 105.99785 24294 ft 404 kts 293°
2026-05-06 07:26 -5.72877 105.97169 24730 ft 406 kts 293°
2026-05-06 07:27 -5.71830 105.94541 25172 ft 408 kts 293°
2026-05-06 07:27 -5.70771 105.91881 25597 ft 411 kts 292°
2026-05-06 07:27 -5.69709 105.89214 26018 ft 413 kts 292°
2026-05-06 07:27 -5.68644 105.86535 26420 ft 415 kts 292°
2026-05-06 07:28 -5.67580 105.83863 26809 ft 417 kts 292°
2026-05-06 07:28 -5.66491 105.81130 27203 ft 420 kts 292°
2026-05-06 07:28 -5.64328 105.75699 27976 ft 423 kts 292°
2026-05-06 07:29 -5.63224 105.72924 28351 ft 426 kts 292°
2026-05-06 07:29 -5.62126 105.70166 28722 ft 428 kts 292°
2026-05-06 07:29 -5.61029 105.67412 29081 ft 430 kts 292°
2026-05-06 07:29 -5.59922 105.64635 29419 ft 433 kts 292°
2026-05-06 07:30 -5.58794 105.61805 29762 ft 435 kts 292°
2026-05-06 07:30 -5.57600 105.59023 30093 ft 437 kts 295°
2026-05-06 07:30 -5.56249 105.56296 30432 ft 439 kts 298°
2026-05-06 07:30 -5.54730 105.53625 30766 ft 441 kts 302°
2026-05-06 07:31 -5.53047 105.51036 31089 ft 443 kts 305°
2026-05-06 07:31 -5.51229 105.48510 31406 ft 445 kts 306°
2026-05-06 07:31 -5.49412 105.46031 31734 ft 446 kts 307°
2026-05-06 07:31 -5.47553 105.43501 32161 ft 445 kts 307°
2026-05-06 07:32 -5.45735 105.41024 32596 ft 444 kts 306°
2026-05-06 07:32 -5.43897 105.38515 33054 ft 443 kts 306°
2026-05-06 07:32 -5.42088 105.36044 33528 ft 441 kts 306°
2026-05-06 07:32 -5.40276 105.33567 34025 ft 439 kts 307°
2026-05-06 07:33 -5.38484 105.31117 34505 ft 436 kts 307°
2026-05-06 07:33 -5.36685 105.28657 34965 ft 434 kts 307°
2026-05-06 07:33 -5.34905 105.26223 35399 ft 433 kts 307°
2026-05-06 07:33 -5.33133 105.23803 35793 ft 431 kts 307°
2026-05-06 07:34 -5.31357 105.21375 36136 ft 431 kts 307°
2026-05-06 07:34 -5.29583 105.18950 36407 ft 432 kts 307°
2026-05-06 07:34 -5.27803 105.16518 36641 ft 433 kts 307°
2026-05-06 07:34 -5.26016 105.14078 36881 ft 434 kts 307°
2026-05-06 07:35 -5.24231 105.11640 37122 ft 435 kts 307°
2026-05-06 07:35 -5.22450 105.09206 37352 ft 435 kts 307°
2026-05-06 07:35 -5.20657 105.06758 37577 ft 436 kts 307°
2026-05-06 07:35 -5.18872 105.04321 37773 ft 437 kts 307°
2026-05-06 07:36 -5.15255 104.99380 37786 ft 438 kts 307°
2026-05-06 07:36 -5.11672 104.94487 37791 ft 438 kts 307°
2026-05-06 07:37 -5.08049 104.89540 37802 ft 439 kts 307°
2026-05-06 07:37 -5.04444 104.84620 37813 ft 440 kts 307°
2026-05-06 07:38 -5.00817 104.79672 37817 ft 440 kts 307°
2026-05-06 07:38 -4.97204 104.74744 37817 ft 440 kts 307°
2026-05-06 07:39 -4.93584 104.69807 37828 ft 439 kts 307°
2026-05-06 07:39 -4.89981 104.64890 37842 ft 439 kts 307°
2026-05-06 07:40 -4.86348 104.59933 37844 ft 440 kts 307°
2026-05-06 07:40 -4.82717 104.54984 37851 ft 440 kts 307°
2026-05-06 07:41 -4.79084 104.50039 37839 ft 440 kts 307°
2026-05-06 07:41 -4.75459 104.45105 37832 ft 440 kts 307°
2026-05-06 07:42 -4.71855 104.40195 37828 ft 439 kts 307°
2026-05-06 07:42 -4.68225 104.35250 37830 ft 440 kts 307°
2026-05-06 07:43 -4.64593 104.30304 37829 ft 441 kts 307°
2026-05-06 07:43 -4.60971 104.25375 37826 ft 441 kts 307°
2026-05-06 07:44 -4.57328 104.20416 37824 ft 441 kts 307°
2026-05-06 07:44 -4.53687 104.15459 37830 ft 442 kts 307°
2026-05-06 07:45 -4.50033 104.10487 37832 ft 442 kts 307°
2026-05-06 07:45 -4.46394 104.05534 37825 ft 442 kts 307°
2026-05-06 07:46 -4.42733 104.00552 37826 ft 442 kts 307°
2026-05-06 07:46 -4.39108 103.95624 37834 ft 442 kts 307°
2026-05-06 07:47 -4.35437 103.90633 37844 ft 442 kts 307°
2026-05-06 07:47 -4.31796 103.85683 37865 ft 443 kts 307°
2026-05-06 07:48 -4.28141 103.80714 37883 ft 443 kts 307°
2026-05-06 07:48 -4.24492 103.75755 37904 ft 443 kts 307°
2026-05-06 07:49 -4.20835 103.70785 37928 ft 443 kts 307°
2026-05-06 07:49 -4.17188 103.65829 37930 ft 443 kts 307°
2026-05-06 07:50 -4.13512 103.60837 37935 ft 444 kts 307°
2026-05-06 07:50 -4.09854 103.55868 37929 ft 444 kts 307°
2026-05-06 07:51 -4.06200 103.50907 37918 ft 444 kts 307°
2026-05-06 07:51 -4.02534 103.45931 37904 ft 444 kts 307°
2026-05-06 07:52 -3.98863 103.40949 37891 ft 444 kts 307°
2026-05-06 07:52 -3.95207 103.35983 37897 ft 444 kts 307°
2026-05-06 07:53 -3.91527 103.30989 37895 ft 445 kts 307°
2026-05-06 07:53 -3.87835 103.25983 37896 ft 445 kts 307°
2026-05-06 07:54 -3.84184 103.21030 37899 ft 445 kts 307°
2026-05-06 07:54 -3.80504 103.16039 37902 ft 444 kts 307°
2026-05-06 07:55 -3.76829 103.11056 37906 ft 444 kts 307°
2026-05-06 07:55 -3.73163 103.06085 37899 ft 444 kts 307°
2026-05-06 07:56 -3.69496 103.01114 37893 ft 444 kts 307°
2026-05-06 07:56 -3.65841 102.96158 37891 ft 444 kts 307°
2026-05-06 07:57 -3.62172 102.91184 37878 ft 444 kts 307°
2026-05-06 07:57 -3.58488 102.86192 37885 ft 444 kts 307°
2026-05-06 07:58 -3.54823 102.81228 37890 ft 444 kts 307°
2026-05-06 07:58 -3.51138 102.76238 37900 ft 444 kts 307°
2026-05-06 07:59 -3.47472 102.71275 37904 ft 444 kts 307°
2026-05-06 07:59 -3.43802 102.66304 37903 ft 444 kts 307°
2026-05-06 08:00 -3.40139 102.61343 37910 ft 444 kts 307°
2026-05-06 08:00 -3.36468 102.56372 37924 ft 444 kts 307°
2026-05-06 08:01 -3.32797 102.51404 37952 ft 444 kts 307°
2026-05-06 08:01 -3.29129 102.46439 37978 ft 444 kts 307°
2026-05-06 08:02 -3.25442 102.41453 37990 ft 445 kts 307°
2026-05-06 08:02 -3.21772 102.36486 37997 ft 445 kts 307°
2026-05-06 08:03 -3.18087 102.31499 37990 ft 445 kts 307°
2026-05-06 08:03 -3.14408 102.26523 37982 ft 445 kts 307°
2026-05-06 08:04 -3.10731 102.21549 37970 ft 446 kts 307°
2026-05-06 08:04 -3.07035 102.16551 37949 ft 446 kts 307°
2026-05-06 08:05 -3.03355 102.11575 37936 ft 446 kts 307°
2026-05-06 08:05 -2.99668 102.06591 37920 ft 447 kts 307°
2026-05-06 08:06 -2.95966 102.01586 37914 ft 447 kts 307°
2026-05-06 08:06 -2.92273 101.96594 37929 ft 447 kts 307°
2026-05-06 08:07 -2.88571 101.91590 37937 ft 447 kts 307°
2026-05-06 08:07 -2.84891 101.86617 37941 ft 446 kts 307°
2026-05-06 08:08 -2.81193 101.81619 37934 ft 447 kts 307°
2026-05-06 08:08 -2.77492 101.76617 37924 ft 447 kts 307°
2026-05-06 08:09 -2.73792 101.71619 37907 ft 448 kts 307°
2026-05-06 08:09 -2.70080 101.66602 37898 ft 447 kts 307°
2026-05-06 08:10 -2.66378 101.61599 37894 ft 446 kts 307°
2026-05-06 08:10 -2.62678 101.56608 37882 ft 446 kts 307°
2026-05-06 08:11 -2.58980 101.51638 37881 ft 446 kts 307°
2026-05-06 08:11 -2.55261 101.46639 37874 ft 447 kts 307°
2026-05-06 08:12 -2.51559 101.41659 37870 ft 447 kts 307°
2026-05-06 08:12 -2.47855 101.36674 37578 ft 447 kts 307°
2026-05-06 08:13 -2.46006 101.34187 37285 ft 444 kts 307°
2026-05-06 08:13 -2.44180 101.31731 36996 ft 440 kts 307°
2026-05-06 08:13 -2.42350 101.29267 36705 ft 438 kts 307°
2026-05-06 08:13 -2.40536 101.26825 36413 ft 437 kts 307°
2026-05-06 08:14 -2.38739 101.24407 36129 ft 437 kts 307°
2026-05-06 08:14 -2.36918 101.21959 35837 ft 437 kts 307°
2026-05-06 08:14 -2.35105 101.19512 35551 ft 438 kts 307°
2026-05-06 08:14 -2.33305 101.17082 35264 ft 438 kts 307°
2026-05-06 08:15 -2.31495 101.14638 34973 ft 439 kts 307°
2026-05-06 08:15 -2.29670 101.12173 34689 ft 439 kts 307°
2026-05-06 08:15 -2.27839 101.09698 34398 ft 440 kts 307°
2026-05-06 08:15 -2.26022 101.07243 34011 ft 441 kts 307°
2026-05-06 08:16 -2.24207 101.04791 33507 ft 442 kts 306°
2026-05-06 08:16 -2.22363 101.02300 32856 ft 444 kts 306°
2026-05-06 08:16 -2.20551 100.99851 32189 ft 445 kts 306°
2026-05-06 08:16 -2.18696 100.97343 31481 ft 447 kts 306°
2026-05-06 08:17 -2.16858 100.94859 30954 ft 443 kts 306°
2026-05-06 08:17 -2.15029 100.92386 30500 ft 439 kts 306°
2026-05-06 08:17 -2.13236 100.89963 30037 ft 436 kts 306°
2026-05-06 08:17 -2.11441 100.87537 29560 ft 432 kts 306°
2026-05-06 08:18 -2.09664 100.85136 29093 ft 429 kts 306°
2026-05-06 08:18 -2.07891 100.82742 28614 ft 426 kts 306°
2026-05-06 08:18 -2.06125 100.80355 28151 ft 424 kts 306°
2026-05-06 08:18 -2.04383 100.78001 27699 ft 421 kts 307°
2026-05-06 08:19 -2.02649 100.75657 27255 ft 418 kts 307°
2026-05-06 08:19 -2.00928 100.73331 26805 ft 416 kts 307°
2026-05-06 08:19 -1.99211 100.71011 26363 ft 413 kts 307°
2026-05-06 08:19 -1.97523 100.68729 25941 ft 410 kts 307°
2026-05-06 08:20 -1.95826 100.66434 25503 ft 407 kts 307°
2026-05-06 08:20 -1.94159 100.64183 25089 ft 404 kts 307°
2026-05-06 08:20 -1.92493 100.61934 24662 ft 402 kts 307°
2026-05-06 08:20 -1.90826 100.59683 24219 ft 400 kts 308°
2026-05-06 08:21 -1.89041 100.57563 23771 ft 397 kts 316°
2026-05-06 08:21 -1.87005 100.55733 23328 ft 393 kts 324°
2026-05-06 08:21 -1.84766 100.54162 22892 ft 390 kts 328°
2026-05-06 08:21 -1.82524 100.52703 22460 ft 388 kts 329°
2026-05-06 08:22 -1.80240 100.51233 22030 ft 386 kts 329°
2026-05-06 08:22 -1.77986 100.49779 21606 ft 384 kts 329°
2026-05-06 08:22 -1.75743 100.48324 21172 ft 383 kts 329°
2026-05-06 08:22 -1.73538 100.46889 20732 ft 381 kts 329°
2026-05-06 08:23 -1.71311 100.45438 20299 ft 379 kts 329°
2026-05-06 08:23 -1.69108 100.43999 19864 ft 378 kts 329°
2026-05-06 08:23 -1.66905 100.42560 19420 ft 376 kts 329°
2026-05-06 08:23 -1.64721 100.41132 18982 ft 374 kts 329°
2026-05-06 08:24 -1.62547 100.39712 18552 ft 372 kts 329°
2026-05-06 08:24 -1.60387 100.38300 18122 ft 369 kts 329°
2026-05-06 08:24 -1.58248 100.36901 17689 ft 367 kts 329°
2026-05-06 08:24 -1.56129 100.35516 17265 ft 365 kts 329°
2026-05-06 08:25 -1.53995 100.34121 16833 ft 362 kts 329°
2026-05-06 08:25 -1.51892 100.32748 16410 ft 360 kts 329°
2026-05-06 08:25 -1.49812 100.31388 15983 ft 357 kts 328°
2026-05-06 08:25 -1.47730 100.30028 15544 ft 355 kts 328°
2026-05-06 08:26 -1.45658 100.28674 15109 ft 353 kts 328°
2026-05-06 08:26 -1.43614 100.27338 14667 ft 351 kts 328°
2026-05-06 08:26 -1.41577 100.26005 14235 ft 349 kts 328°
2026-05-06 08:26 -1.39529 100.24668 13811 ft 347 kts 328°
2026-05-06 08:27 -1.37527 100.23359 13388 ft 345 kts 328°
2026-05-06 08:27 -1.35515 100.22043 12960 ft 343 kts 328°
2026-05-06 08:27 -1.33522 100.20740 12526 ft 341 kts 328°
2026-05-06 08:27 -1.31538 100.19443 12096 ft 339 kts 328°
2026-05-06 08:28 -1.29571 100.18158 11652 ft 337 kts 327°
2026-05-06 08:28 -1.27605 100.16873 11236 ft 334 kts 328°
2026-05-06 08:28 -1.25666 100.15607 10821 ft 332 kts 327°
2026-05-06 08:28 -1.23742 100.14349 10367 ft 332 kts 327°
2026-05-06 08:29 -1.21822 100.13094 10012 ft 326 kts 327°
2026-05-06 08:29 -1.19932 100.11923 9896 ft 311 kts 332°
2026-05-06 08:29 -1.18014 100.10941 9624 ft 304 kts 335°
2026-05-06 08:29 -1.16110 100.10041 9320 ft 299 kts 335°
2026-05-06 08:30 -1.14232 100.09161 8883 ft 299 kts 335°
2026-05-06 08:30 -1.12321 100.08425 8383 ft 292 kts 351°
2026-05-06 08:30 -1.10336 100.08607 7956 ft 280 kts 21°
2026-05-06 08:30 -1.08747 100.09645 7593 ft 275 kts 47°
2026-05-06 08:31 -1.07729 100.11240 7245 ft 273 kts 64°
2026-05-06 08:31 -1.06942 100.12949 6917 ft 271 kts 65°
2026-05-06 08:31 -1.06152 100.14669 6582 ft 270 kts 65°
2026-05-06 08:31 -1.05357 100.16363 6247 ft 269 kts 64°
2026-05-06 08:32 -1.04551 100.18053 5914 ft 268 kts 64°
2026-05-06 08:32 -1.03747 100.19727 5591 ft 267 kts 64°
2026-05-06 08:32 -1.02940 100.21392 5130 ft 272 kts 62°
2026-05-06 08:32 -1.01777 100.22863 4666 ft 271 kts 36°
2026-05-06 08:33 -1.00076 100.23651 4400 ft 264 kts 14°
2026-05-06 08:33 -0.98357 100.24221 4153 ft 260 kts 30°
2026-05-06 08:33 -0.97061 100.25437 3950 ft 253 kts 59°
2026-05-06 08:33 -0.96561 100.27072 3787 ft 245 kts 88°
2026-05-06 08:34 -0.96779 100.28704 3654 ft 236 kts 103°
2026-05-06 08:34 -0.97445 100.31814 3351 ft 219 kts 97°
2026-05-06 08:34 -0.97609 100.33271 3338 ft 203 kts 94°
2026-05-06 08:35 -0.97497 100.34634 3292 ft 188 kts 63°
2026-05-06 08:35 -0.96593 100.35421 3169 ft 170 kts 13°
2026-05-06 08:35 -0.95422 100.35460 3097 ft 168 kts 351°
2026-05-06 08:35 -0.94294 100.35181 3010 ft 168 kts 341°
2026-05-06 08:36 -0.93191 100.34758 2797 ft 167 kts 337°
2026-05-06 08:36 -0.92139 100.34296 2588 ft 166 kts 335°
2026-05-06 08:36 -0.91080 100.33809 2373 ft 165 kts 335°
2026-05-06 08:36 -0.90036 100.33325 2164 ft 166 kts 334°
2026-05-06 08:37 -0.88985 100.32838 1949 ft 165 kts 334°
2026-05-06 08:37 -0.87951 100.32359 1740 ft 162 kts 334°
2026-05-06 08:37 -0.86980 100.31911 1537 ft 144 kts 335°
2026-05-06 08:37 -0.86094 100.31503 1338 ft 137 kts 334°
2026-05-06 08:38 -0.85225 100.31101 1167 ft 137 kts 334°
2026-05-06 08:38 -0.84368 100.30705 999 ft 136 kts 334°
2026-05-06 08:38 -0.83505 100.30307 834 ft 136 kts 334°
2026-05-06 08:38 -0.82642 100.29908 655 ft 136 kts 334°
2026-05-06 08:39 -0.81780 100.29507 486 ft 135 kts 334°
2026-05-06 08:39 -0.80913 100.29117 334 ft 135 kts 334°
2026-05-06 08:39 -0.80067 100.28719 165 ft 133 kts 335°
2026-05-06 08:39 -0.79218 100.28329 50 ft 132 kts 334°
2026-05-06 08:40 -0.78535 100.28011 57 ft 82 kts 335°
2026-05-06 08:40 -0.78179 100.27893 63 ft 23 kts 347°
2026-05-06 08:40 -0.78208 100.27851 63 ft 16 kts 137°
2026-05-06 08:40 -0.78303 100.27899 61 ft 16 kts 149°
2026-05-06 08:41 -0.78405 100.27957 60 ft 17 kts 154°
2026-05-06 08:41 -0.78534 100.28017 57 ft 23 kts 156°
2026-05-06 08:41 -0.78549 100.28141 58 ft 20 kts 63°
2026-05-06 08:41 -0.78485 100.28271 58 ft 20 kts 68°
2026-05-06 08:42 -0.78552 100.28374 57 ft 18 kts 152°
2026-05-06 08:42 -0.78556 100.28455 57 ft 9 kts 66°
2026-05-06 08:42 -0.78553 100.28461 57 ft 0 kts 63°